{"data":{"norad_id":64332,"intl_designator":"2025-124R","name":"STARLINK-33782","alt_names":[],"object_type":"PAYLOAD","status":"ACTIVE","operator":null,"country":"US","launch_date":"2025-06-10","launch_site_code":"AFETR","launch_vehicle":null,"mission":null,"orbit_class":"UNKNOWN","rcs_meters":null,"size_class":null,"mass_kg":null,"dimensions":null,"purposes":["comms"],"wikipedia_slug":null,"has_3d_model":false,"image_url":null,"decayed_at":null,"tle_current":{"epoch":"2026-09-20T22:42:17.221824Z","epoch_age_seconds":95855,"freshness":"FRESH","line1":"1 64332U 25124R   26263.94603266  .00009827  00000+0  36598-3 0  9996","line2":"2 64332  43.0039  98.8851 0001985 256.9535 103.1095 15.27596660 71640","mean_motion":15.2759666,"eccentricity":0.0001985,"inclination_deg":43.0039,"raan_deg":98.8851,"arg_perigee_deg":256.9535,"mean_anomaly_deg":103.1095,"bstar":0.00036598,"rev_number":7164,"period_min":94.265720638588,"perigee_km":481.63727492186,"apogee_km":484.36114599741,"semimajor_km":6861.1362104596,"source":"CELESTRAK","updated_at":"2026-09-21T09:00:35.313723Z"}}}